Location: Wells
(51.2093°N, 2.6446°W)
Time: 06:46:54
(UTC+01:00)

PCSat - Pass Details

Date: 18 March 2026
Orbit: 780 x 790 km, 67.1° (Epoch: 13 April)

Event Time Altitude Azimuth Distance (km) Brightness Sun altitude
Rises 05:41:33 0° 323° (NW) 3,297 12.5 -6.5°
Reaches altitude 10° 05:44:01 10° 327° (NNW) 2,365 11.8 -6.2°
Maximum altitude 05:49:24 61° 47° (NE) 897 10.2 -5.3°
Drops below altitude 10° 05:54:44 10° 128° (SE) 2,350 12.8 -4.5°
Sets 05:57:10 0° 132° (SE) 3,275 13.5 -4.1°
